Time,TemperatureF,DewpointF,PressureIn,WindDirection,WindDirectionDegrees,WindSpeedMPH,WindSpeedGustMPH,Humidity,HourlyPrecipIn,Conditions,Clouds,dailyrainin,SoftwareType,DateUTC
2013-07-13 00:01:00,68.8,67.9,30.01,NNW,329,0.0,1.0,97,0.00,,---,0.00,VWS V14.01,2013-07-13 04:01:00,
2013-07-13 00:02:00,68.8,67.9,30.01,NW,323,0.0,2.0,97,0.00,,---,0.00,VWS V14.01,2013-07-13 04:02:00,
2013-07-13 00:07:00,68.9,68.0,30.01,South,191,0.0,2.0,97,0.00,,---,0.00,VWS V14.01,2013-07-13 04:07:00,
2013-07-13 00:12:00,68.9,68.0,30.01,NW,321,0.0,2.0,97,0.00,,---,0.00,VWS V14.01,2013-07-13 04:12:00,
2013-07-13 00:17:00,69.0,68.4,30.01,NE,44,0.0,1.0,98,0.00,,---,0.00,VWS V14.01,2013-07-13 04:17:00,
2013-07-13 00:22:00,69.1,68.5,30.01,NE,49,3.0,3.0,98,0.00,,---,0.00,VWS V14.01,2013-07-13 04:22:00,
2013-07-13 00:27:00,69.2,68.6,30.01,North,8,0.0,2.0,98,0.00,,---,0.00,VWS V14.01,2013-07-13 04:27:00,
2013-07-13 00:32:00,69.3,68.7,30.00,NE,45,0.0,2.0,98,0.00,,---,0.00,VWS V14.01,2013-07-13 04:32:00,
2013-07-13 00:37:00,69.4,68.8,30.00,NE,52,1.0,3.0,98,0.00,,---,0.00,VWS V14.01,2013-07-13 04:37:00,
2013-07-13 00:42:00,69.5,68.9,30.00,ENE,67,1.0,4.0,98,0.00,,---,0.00,VWS V14.01,2013-07-13 04:42:00,
2013-07-13 00:47:00,69.6,69.0,30.01,NE,44,0.0,1.0,98,0.00,,---,0.00,VWS V14.01,2013-07-13 04:47:00,
2013-07-13 00:52:00,69.6,68.7,30.01,NE,56,0.0,1.0,97,0.00,,---,0.00,VWS V14.01,2013-07-13 04:52:00,
2013-07-13 00:57:00,69.6,69.0,30.01,ENE,61,1.0,1.0,98,0.00,,---,0.00,VWS V14.01,2013-07-13 04:57:00,
2013-07-13 01:02:00,69.7,69.1,30.01,NE,46,0.0,5.0,98,0.00,,---,0.00,VWS V14.01,2013-07-13 05:02:00,
2013-07-13 01:07:00,69.7,69.1,30.02,NE,49,0.0,3.0,98,0.00,,---,0.00,VWS V14.01,2013-07-13 05:07:00,
2013-07-13 01:12:00,69.8,68.9,30.02,NE,51,0.0,3.0,97,0.00,,---,0.00,VWS V14.01,2013-07-13 05:12:00,
2013-07-13 01:17:00,69.9,69.0,30.02,ENE,57,1.0,4.0,97,0.00,,---,0.00,VWS V14.01,2013-07-13 05:17:00,
2013-07-13 01:22:00,70.0,69.1,30.01,ENE,59,2.0,2.0,97,0.00,,---,0.00,VWS V14.01,2013-07-13 05:22:00,
2013-07-13 01:27:00,70.0,69.1,30.01,NE,52,0.0,1.0,97,0.00,,---,0.00,VWS V14.01,2013-07-13 05:27:00,
2013-07-13 01:32:00,70.0,69.1,30.01,NE,40,1.0,2.0,97,0.00,,---,0.00,VWS V14.01,2013-07-13 05:32:00,
2013-07-13 01:37:00,70.0,69.1,30.01,NE,41,1.0,2.0,97,0.00,,---,0.00,VWS V14.01,2013-07-13 05:37:00,
2013-07-13 01:42:00,69.9,69.0,30.02,NE,44,1.0,3.0,97,0.00,,---,0.00,VWS V14.01,2013-07-13 05:42:00,
2013-07-13 01:47:00,69.9,69.0,30.02,ENE,70,1.0,1.0,97,0.00,,---,0.00,VWS V14.01,2013-07-13 05:47:00,
2013-07-13 01:52:00,69.9,69.0,30.01,ENE,70,1.0,1.0,97,0.00,,---,0.00,VWS V14.01,2013-07-13 05:52:00,
2013-07-13 01:57:00,69.9,69.0,30.01,ENE,78,1.0,2.0,97,0.00,,---,0.00,VWS V14.01,2013-07-13 05:57:00,
2013-07-13 02:02:00,69.8,68.9,30.01,ENE,68,1.0,3.0,97,0.00,,---,0.00,VWS V14.01,2013-07-13 06:02:00,
2013-07-13 02:07:00,69.8,68.9,30.01,NNE,18,1.0,2.0,97,0.00,,---,0.00,VWS V14.01,2013-07-13 06:07:00,
2013-07-13 02:12:00,69.8,68.9,30.01,NE,43,4.0,4.0,97,0.00,,---,0.00,VWS V14.01,2013-07-13 06:12:00,
2013-07-13 02:17:00,69.9,69.0,30.02,NNW,337,0.0,1.0,97,0.00,,---,0.00,VWS V14.01,2013-07-13 06:17:00,
2013-07-13 02:22:00,69.9,69.0,30.02,NW,326,0.0,0.0,97,0.00,,---,0.00,VWS V14.01,2013-07-13 06:22:00,
2013-07-13 02:27:00,69.9,69.0,30.02,NE,40,1.0,2.0,97,0.00,,---,0.00,VWS V14.01,2013-07-13 06:27:00,
2013-07-13 02:32:00,70.0,69.1,30.01,NE,56,0.0,4.0,97,0.00,,---,0.00,VWS V14.01,2013-07-13 06:32:00,
2013-07-13 02:37:00,70.0,69.1,30.01,NE,47,3.0,4.0,97,0.00,,---,0.00,VWS V14.01,2013-07-13 06:37:00,
2013-07-13 02:42:00,70.0,69.1,30.02,NNE,27,3.0,5.0,97,0.00,,---,0.00,VWS V14.01,2013-07-13 06:42:00,
2013-07-13 02:47:00,70.0,69.1,30.02,North,359,0.0,2.0,97,0.00,,---,0.00,VWS V14.01,2013-07-13 06:47:00,
2013-07-13 02:52:00,70.0,69.1,30.01,ENE,75,1.0,3.0,97,0.00,,---,0.00,VWS V14.01,2013-07-13 06:52:00,
2013-07-13 02:57:00,70.0,69.1,30.02,NE,49,2.0,3.0,97,0.00,,---,0.00,VWS V14.01,2013-07-13 06:57:00,
2013-07-13 03:02:00,70.0,69.1,30.02,ENE,60,2.0,2.0,97,0.00,,---,0.00,VWS V14.01,2013-07-13 07:02:00,
2013-07-13 03:07:00,70.0,69.1,30.01,NE,43,1.0,6.0,97,0.00,,---,0.00,VWS V14.01,2013-07-13 07:07:00,
2013-07-13 03:12:00,70.0,69.1,30.02,East,82,5.0,7.0,97,0.00,,---,0.00,VWS V14.01,2013-07-13 07:12:00,
2013-07-13 03:17:00,70.0,69.1,30.02,NNE,20,1.0,4.0,97,0.00,,---,0.00,VWS V14.01,2013-07-13 07:17:00,
2013-07-13 03:22:00,70.0,69.1,30.02,NE,45,2.0,4.0,97,0.00,,---,0.00,VWS V14.01,2013-07-13 07:22:00,
2013-07-13 03:27:00,70.0,69.1,30.02,NNE,30,2.0,4.0,97,0.00,,---,0.00,VWS V14.01,2013-07-13 07:27:00,
2013-07-13 03:32:00,70.0,69.1,30.02,NE,53,1.0,6.0,97,0.00,,---,0.00,VWS V14.01,2013-07-13 07:32:00,
2013-07-13 03:37:00,70.1,69.2,30.02,NNW,333,0.0,2.0,97,0.00,,---,0.00,VWS V14.01,2013-07-13 07:37:00,
2013-07-13 03:42:00,70.1,69.2,30.02,NNE,30,4.0,5.0,97,0.00,,---,0.00,VWS V14.01,2013-07-13 07:42:00,
2013-07-13 03:47:00,70.0,69.1,30.02,NE,47,0.0,4.0,97,0.00,,---,0.00,VWS V14.01,2013-07-13 07:47:00,
2013-07-13 03:52:00,70.0,69.1,30.02,ESE,107,5.0,7.0,97,0.00,,---,0.00,VWS V14.01,2013-07-13 07:52:00,
2013-07-13 03:57:00,70.0,69.1,30.02,ENE,61,3.0,6.0,97,0.00,,---,0.00,VWS V14.01,2013-07-13 07:57:00,
2013-07-13 04:02:00,69.9,69.0,30.02,ESE,105,0.0,6.0,97,0.00,,---,0.00,VWS V14.01,2013-07-13 08:02:00,
2013-07-13 04:07:00,69.9,69.0,30.02,NNE,32,0.0,1.0,97,0.00,,---,0.00,VWS V14.01,2013-07-13 08:07:00,
2013-07-13 04:12:00,69.8,68.9,30.02,NE,53,0.0,4.0,97,0.00,,---,0.00,VWS V14.01,2013-07-13 08:12:00,
2013-07-13 04:17:00,69.7,68.8,30.01,East,88,2.0,3.0,97,0.00,,---,0.00,VWS V14.01,2013-07-13 08:17:00,
2013-07-13 04:22:00,69.6,68.7,30.01,NE,47,4.0,4.0,97,0.00,,---,0.00,VWS V14.01,2013-07-13 08:22:00,
2013-07-13 04:27:00,69.6,68.7,30.01,ENE,58,1.0,2.0,97,0.00,,---,0.00,VWS V14.01,2013-07-13 08:27:00,
2013-07-13 04:32:00,69.6,68.7,30.01,ENE,72,3.0,5.0,97,0.00,,---,0.00,VWS V14.01,2013-07-13 08:32:00,
2013-07-13 04:37:00,69.6,68.7,30.02,NE,51,3.0,3.0,97,0.00,,---,0.00,VWS V14.01,2013-07-13 08:37:00,
2013-07-13 04:42:00,69.5,68.6,30.01,NNE,18,0.0,3.0,97,0.00,,---,0.00,VWS V14.01,2013-07-13 08:42:00,
2013-07-13 04:47:00,69.5,68.6,30.01,NE,45,0.0,2.0,97,0.00,,---,0.00,VWS V14.01,2013-07-13 08:47:00,
2013-07-13 04:52:00,69.5,68.6,30.01,NE,42,1.0,3.0,97,0.00,,---,0.00,VWS V14.01,2013-07-13 08:52:00,
2013-07-13 04:57:00,69.5,68.6,30.01,NE,43,4.0,6.0,97,0.00,,---,0.00,VWS V14.01,2013-07-13 08:57:00,
2013-07-13 05:02:00,69.6,68.7,30.01,NE,47,2.0,6.0,97,0.00,,---,0.00,VWS V14.01,2013-07-13 09:02:00,
2013-07-13 05:07:00,69.7,68.8,30.01,East,84,0.0,5.0,97,0.00,,---,0.00,VWS V14.01,2013-07-13 09:07:00,
2013-07-13 05:12:00,69.7,68.8,30.01,North,6,5.0,5.0,97,0.00,,---,0.00,VWS V14.01,2013-07-13 09:12:00,
2013-07-13 05:17:00,69.7,68.8,30.02,NE,36,4.0,4.0,97,0.00,,---,0.00,VWS V14.01,2013-07-13 09:17:00,
2013-07-13 05:22:00,69.8,68.9,30.02,NE,54,2.0,5.0,97,0.00,,---,0.00,VWS V14.01,2013-07-13 09:22:00,
2013-07-13 05:27:00,69.8,68.9,30.02,ENE,65,1.0,1.0,97,0.00,,---,0.00,VWS V14.01,2013-07-13 09:27:00,
2013-07-13 05:32:00,69.8,68.9,30.02,NE,53,2.0,2.0,97,0.00,,---,0.00,VWS V14.01,2013-07-13 09:32:00,
2013-07-13 05:37:00,69.8,68.9,30.01,East,82,4.0,6.0,97,0.00,,---,0.00,VWS V14.01,2013-07-13 09:37:00,
2013-07-13 05:42:00,69.8,68.9,30.01,NE,41,1.0,8.0,97,0.00,,---,0.00,VWS V14.01,2013-07-13 09:42:00,
2013-07-13 05:47:00,69.8,68.9,30.02,NE,53,0.0,7.0,97,0.00,,---,0.00,VWS V14.01,2013-07-13 09:47:00,
2013-07-13 05:52:00,69.8,68.9,30.02,ENE,64,6.0,6.0,97,0.00,,---,0.00,VWS V14.01,2013-07-13 09:52:00,
2013-07-13 05:57:00,69.8,68.9,30.02,NE,40,2.0,6.0,97,0.00,,---,0.00,VWS V14.01,2013-07-13 09:57:00,
2013-07-13 06:02:00,69.8,68.9,30.02,NE,40,1.0,2.0,97,0.00,,---,0.00,VWS V14.01,2013-07-13 10:02:00,
2013-07-13 06:07:00,69.8,68.9,30.02,ENE,63,2.0,4.0,97,0.00,,---,0.00,VWS V14.01,2013-07-13 10:07:00,
2013-07-13 06:12:00,69.8,68.9,30.02,NE,49,0.0,2.0,97,0.00,,---,0.00,VWS V14.01,2013-07-13 10:12:00,
2013-07-13 06:17:00,69.8,68.9,30.02,East,79,3.0,5.0,97,0.00,,---,0.00,VWS V14.01,2013-07-13 10:17:00,
2013-07-13 06:22:00,69.8,68.9,30.02,ENE,57,1.0,4.0,97,0.00,,---,0.00,VWS V14.01,2013-07-13 10:22:00,
2013-07-13 06:27:00,69.8,68.9,30.02,NE,49,0.0,5.0,97,0.00,,---,0.00,VWS V14.01,2013-07-13 10:27:00,
2013-07-13 06:32:00,69.7,68.8,30.02,ENE,74,1.0,4.0,97,0.00,,---,0.00,VWS V14.01,2013-07-13 10:32:00,
2013-07-13 06:37:00,69.7,68.8,30.02,NE,43,3.0,6.0,97,0.00,,---,0.00,VWS V14.01,2013-07-13 10:37:00,
2013-07-13 06:42:00,69.7,68.5,30.02,NE,53,2.0,4.0,96,0.00,,---,0.00,VWS V14.01,2013-07-13 10:42:00,
2013-07-13 06:47:00,69.7,68.5,30.02,NE,39,2.0,6.0,96,0.00,,---,0.00,VWS V14.01,2013-07-13 10:47:00,
2013-07-13 06:52:00,69.7,68.5,30.03,NE,44,0.0,3.0,96,0.00,,---,0.00,VWS V14.01,2013-07-13 10:52:00,
2013-07-13 06:57:00,69.7,68.5,30.03,ENE,59,1.0,3.0,96,0.00,,---,0.00,VWS V14.01,2013-07-13 10:57:00,
2013-07-13 07:02:00,69.8,68.6,30.04,ENE,75,0.0,4.0,96,0.00,,---,0.00,VWS V14.01,2013-07-13 11:02:00,
2013-07-13 07:07:00,69.8,68.6,30.04,NE,46,3.0,4.0,96,0.00,,---,0.00,VWS V14.01,2013-07-13 11:07:00,
2013-07-13 07:12:00,69.8,68.6,30.04,NE,45,1.0,3.0,96,0.00,,---,0.00,VWS V14.01,2013-07-13 11:12:00,
2013-07-13 07:17:00,69.9,68.7,30.05,NE,46,2.0,4.0,96,0.00,,---,0.00,VWS V14.01,2013-07-13 11:17:00,
2013-07-13 07:22:00,69.9,68.7,30.05,ENE,65,4.0,4.0,96,0.00,,---,0.00,VWS V14.01,2013-07-13 11:22:00,
2013-07-13 07:27:00,70.0,68.8,30.05,East,82,3.0,5.0,96,0.00,,---,0.00,VWS V14.01,2013-07-13 11:27:00,
2013-07-13 07:32:00,70.0,68.8,30.05,NE,44,1.0,7.0,96,0.00,,---,0.00,VWS V14.01,2013-07-13 11:32:00,
2013-07-13 07:37:00,70.1,68.9,30.05,NE,46,2.0,3.0,96,0.00,,---,0.00,VWS V14.01,2013-07-13 11:37:00,
2013-07-13 07:42:00,70.1,68.9,30.05,ENE,59,0.0,3.0,96,0.00,,---,0.00,VWS V14.01,2013-07-13 11:42:00,
2013-07-13 07:47:00,70.1,68.9,30.06,NE,51,0.0,4.0,96,0.00,,---,0.00,VWS V14.01,2013-07-13 11:47:00,
2013-07-13 07:52:00,70.2,69.0,30.06,NE,45,1.0,2.0,96,0.00,,---,0.00,VWS V14.01,2013-07-13 11:52:00,
2013-07-13 07:57:00,70.3,69.1,30.06,NE,43,2.0,4.0,96,0.00,,---,0.00,VWS V14.01,2013-07-13 11:57:00,
2013-07-13 08:02:00,70.3,69.1,30.06,NNE,18,2.0,4.0,96,0.00,,---,0.00,VWS V14.01,2013-07-13 12:02:00,
2013-07-13 08:07:00,70.4,69.2,30.06,NNE,33,4.0,5.0,96,0.00,,---,0.00,VWS V14.01,2013-07-13 12:07:00,
2013-07-13 08:12:00,70.5,69.3,30.06,NNW,343,2.0,5.0,96,0.00,,---,0.00,VWS V14.01,2013-07-13 12:12:00,
2013-07-13 08:17:00,70.5,69.0,30.06,North,10,1.0,4.0,95,0.00,,---,0.00,VWS V14.01,2013-07-13 12:17:00,
2013-07-13 08:22:00,70.6,69.1,30.06,NE,44,2.0,5.0,95,0.00,,---,0.00,VWS V14.01,2013-07-13 12:22:00,
2013-07-13 08:27:00,70.7,69.2,30.06,NE,46,0.0,4.0,95,0.00,,---,0.00,VWS V14.01,2013-07-13 12:27:00,
2013-07-13 08:32:00,70.7,69.2,30.07,NE,44,4.0,6.0,95,0.00,,---,0.00,VWS V14.01,2013-07-13 12:32:00,
2013-07-13 08:37:00,70.7,69.2,30.07,NE,44,1.0,5.0,95,0.00,,---,0.00,VWS V14.01,2013-07-13 12:37:00,
2013-07-13 08:42:00,70.8,69.3,30.07,NE,53,2.0,4.0,95,0.00,,---,0.00,VWS V14.01,2013-07-13 12:42:00,
2013-07-13 08:47:00,70.8,69.3,30.07,NE,43,1.0,5.0,95,0.00,,---,0.00,VWS V14.01,2013-07-13 12:47:00,
2013-07-13 08:52:00,70.8,69.3,30.07,ENE,59,3.0,7.0,95,0.00,,---,0.00,VWS V14.01,2013-07-13 12:52:00,
2013-07-13 08:57:00,70.9,69.4,30.07,North,352,0.0,3.0,95,0.00,,---,0.00,VWS V14.01,2013-07-13 12:57:00,
2013-07-13 09:02:00,70.9,69.1,30.07,ENE,75,1.0,7.0,94,0.00,,---,0.00,VWS V14.01,2013-07-13 13:02:00,
2013-07-13 09:07:00,71.0,69.2,30.07,ENE,63,3.0,5.0,94,0.00,,---,0.00,VWS V14.01,2013-07-13 13:07:00,
2013-07-13 09:12:00,71.1,69.3,30.08,ENE,59,1.0,1.0,94,0.00,,---,0.00,VWS V14.01,2013-07-13 13:12:00,
2013-07-13 09:18:00,71.3,69.5,30.08,ENE,60,0.0,3.0,94,0.00,,---,0.00,VWS V14.01,2013-07-13 13:18:00,
2013-07-13 09:22:00,71.4,69.6,30.08,NE,46,3.0,8.0,94,0.00,,---,0.00,VWS V14.01,2013-07-13 13:22:00,
2013-07-13 09:28:00,71.6,69.8,30.08,East,79,1.0,2.0,94,0.00,,---,0.00,VWS V14.01,2013-07-13 13:28:00,
2013-07-13 09:33:00,71.7,69.9,30.08,ENE,77,0.0,3.0,94,0.00,,---,0.00,VWS V14.01,2013-07-13 13:33:00,
2013-07-13 09:38:00,71.7,69.6,30.08,ENE,63,3.0,8.0,93,0.00,,---,0.00,VWS V14.01,2013-07-13 13:38:00,
2013-07-13 09:43:00,71.7,69.6,30.08,East,84,2.0,6.0,93,0.00,,---,0.00,VWS V14.01,2013-07-13 13:43:00,
2013-07-13 09:48:00,71.6,69.5,30.08,NE,51,0.0,3.0,93,0.00,,---,0.00,VWS V14.01,2013-07-13 13:48:00,
2013-07-13 09:53:00,71.6,69.5,30.08,NE,47,2.0,4.0,93,0.00,,---,0.00,VWS V14.01,2013-07-13 13:53:00,
2013-07-13 09:58:00,71.6,69.5,30.08,NE,44,0.0,4.0,93,0.00,,---,0.00,VWS V14.01,2013-07-13 13:58:00,
2013-07-13 10:03:00,71.7,69.6,30.09,ESE,102,4.0,5.0,93,0.00,,---,0.00,VWS V14.01,2013-07-13 14:03:00,
2013-07-13 10:08:00,71.8,69.7,30.09,NE,40,2.0,6.0,93,0.00,,---,0.00,VWS V14.01,2013-07-13 14:08:00,
2013-07-13 10:13:00,71.9,69.8,30.09,NE,46,0.0,2.0,93,0.00,,---,0.00,VWS V14.01,2013-07-13 14:13:00,
2013-07-13 10:18:00,72.0,69.9,30.09,ESE,107,1.0,2.0,93,0.00,,---,0.00,VWS V14.01,2013-07-13 14:18:00,
2013-07-13 10:23:00,72.1,70.0,30.09,ENE,57,3.0,5.0,93,0.00,,---,0.00,VWS V14.01,2013-07-13 14:23:00,
2013-07-13 10:28:00,72.2,70.1,30.09,ENE,61,4.0,6.0,93,0.00,,---,0.00,VWS V14.01,2013-07-13 14:28:00,
2013-07-13 10:33:00,72.2,70.1,30.09,NE,45,1.0,3.0,93,0.00,,---,0.00,VWS V14.01,2013-07-13 14:33:00,
2013-07-13 10:38:00,72.3,69.8,30.09,ENE,65,6.0,6.0,92,0.00,,---,0.00,VWS V14.01,2013-07-13 14:38:00,
2013-07-13 10:43:00,72.4,69.9,30.09,ENE,76,0.0,7.0,92,0.00,,---,0.00,VWS V14.01,2013-07-13 14:43:00,
2013-07-13 10:48:00,72.6,70.2,30.09,NE,41,2.0,6.0,92,0.00,,---,0.00,VWS V14.01,2013-07-13 14:48:00,
2013-07-13 10:53:00,72.9,70.4,30.09,ENE,57,3.0,4.0,92,0.00,,---,0.00,VWS V14.01,2013-07-13 14:53:00,
2013-07-13 10:58:00,73.0,70.2,30.09,NE,41,4.0,6.0,91,0.00,,---,0.00,VWS V14.01,2013-07-13 14:58:00,
2013-07-13 11:03:00,73.0,69.9,30.09,ENE,75,5.0,10.0,90,0.00,,---,0.00,VWS V14.01,2013-07-13 15:03:00,
2013-07-13 11:08:00,73.0,69.9,30.09,East,81,1.0,14.0,90,0.00,,---,0.00,VWS V14.01,2013-07-13 15:08:00,
2013-07-13 11:13:00,73.1,70.3,30.09,East,100,1.0,4.0,91,0.00,,---,0.00,VWS V14.01,2013-07-13 15:13:00,
2013-07-13 11:18:00,73.3,69.9,30.09,NE,46,3.0,8.0,89,0.00,,---,0.00,VWS V14.01,2013-07-13 15:18:00,
2013-07-13 11:23:00,73.3,70.2,30.10,ENE,65,1.0,3.0,90,0.00,,---,0.00,VWS V14.01,2013-07-13 15:23:00,
2013-07-13 11:28:00,73.4,70.6,30.10,ENE,57,0.0,4.0,91,0.00,,---,0.00,VWS V14.01,2013-07-13 15:28:00,
2013-07-13 11:33:00,73.5,70.4,30.10,East,92,3.0,5.0,90,0.00,,---,0.00,VWS V14.01,2013-07-13 15:33:00,
2013-07-13 11:38:00,73.4,70.3,30.10,ENE,65,1.0,7.0,90,0.00,,---,0.00,VWS V14.01,2013-07-13 15:38:00,
2013-07-13 11:43:00,73.5,70.4,30.10,ENE,71,3.0,5.0,90,0.00,,---,0.00,VWS V14.01,2013-07-13 15:43:00,
2013-07-13 11:48:00,73.5,70.4,30.10,NE,49,2.0,9.0,90,0.00,,---,0.00,VWS V14.01,2013-07-13 15:48:00,
2013-07-13 11:53:00,73.5,70.4,30.10,NE,40,3.0,6.0,90,0.00,,---,0.00,VWS V14.01,2013-07-13 15:53:00,
2013-07-13 11:58:00,73.7,70.9,30.11,NNE,27,2.0,5.0,91,0.00,,---,0.00,VWS V14.01,2013-07-13 15:58:00,
2013-07-13 12:03:00,73.9,70.8,30.11,NE,43,1.0,5.0,90,0.00,,---,0.00,VWS V14.01,2013-07-13 16:03:00,
2013-07-13 12:04:00,74.0,70.9,30.11,North,356,2.0,5.0,90,0.00,,---,0.00,VWS V14.01,2013-07-13 16:04:00,
2013-07-13 12:09:00,74.2,70.8,30.11,ENE,74,2.0,5.0,89,0.00,,---,0.00,VWS V14.01,2013-07-13 16:09:00,
2013-07-13 12:14:00,74.5,71.1,30.11,NE,34,1.0,4.0,89,0.00,,---,0.00,VWS V14.01,2013-07-13 16:14:00,
2013-07-13 12:19:00,74.4,70.6,30.11,NE,40,4.0,7.0,88,0.00,,---,0.00,VWS V14.01,2013-07-13 16:19:00,
2013-07-13 12:24:00,74.1,70.3,30.11,NE,49,3.0,9.0,88,0.00,,---,0.00,VWS V14.01,2013-07-13 16:24:00,
2013-07-13 12:29:00,73.9,70.5,30.10,NE,51,3.0,10.0,89,0.00,,---,0.00,VWS V14.01,2013-07-13 16:29:00,
2013-07-13 12:34:00,74.0,70.9,30.10,North,352,2.0,6.0,90,0.00,,---,0.00,VWS V14.01,2013-07-13 16:34:00,
2013-07-13 12:40:00,74.2,71.1,30.10,ENE,75,0.0,4.0,90,0.00,,---,0.00,VWS V14.01,2013-07-13 16:40:00,
2013-07-13 12:45:00,74.6,71.2,30.10,NNE,21,4.0,7.0,89,0.00,,---,0.00,VWS V14.01,2013-07-13 16:45:00,
2013-07-13 12:50:00,74.6,70.8,30.10,NE,49,3.0,9.0,88,0.00,,---,0.00,VWS V14.01,2013-07-13 16:50:00,
2013-07-13 12:55:00,74.6,70.8,30.10,NNW,329,3.0,7.0,88,0.00,,---,0.00,VWS V14.01,2013-07-13 16:55:00,
2013-07-13 13:00:00,74.9,71.1,30.10,ENE,57,0.0,3.0,88,0.00,,---,0.00,VWS V14.01,2013-07-13 17:00:00,
2013-07-13 13:05:00,74.8,70.7,30.10,NE,36,4.0,8.0,87,0.00,,---,0.00,VWS V14.01,2013-07-13 17:05:00,
2013-07-13 13:10:00,74.8,70.7,30.10,NNE,29,2.0,9.0,87,0.00,,---,0.00,VWS V14.01,2013-07-13 17:10:00,
2013-07-13 13:15:00,74.9,71.1,30.10,NE,34,8.0,8.0,88,0.00,,---,0.00,VWS V14.01,2013-07-13 17:15:00,
2013-07-13 13:20:00,74.8,70.7,30.09,NNE,20,4.0,11.0,87,0.00,,---,0.00,VWS V14.01,2013-07-13 17:20:00,
2013-07-13 13:25:00,74.9,71.1,30.09,ENE,63,0.0,8.0,88,0.00,,---,0.00,VWS V14.01,2013-07-13 17:25:00,
2013-07-13 13:30:00,75.1,70.6,30.09,ENE,65,5.0,10.0,86,0.00,,---,0.00,VWS V14.01,2013-07-13 17:30:00,
2013-07-13 13:35:00,75.6,71.5,30.09,NE,56,2.0,8.0,87,0.00,,---,0.00,VWS V14.01,2013-07-13 17:35:00,
2013-07-13 13:40:00,76.1,71.6,30.09,NE,46,2.0,6.0,86,0.00,,---,0.00,VWS V14.01,2013-07-13 17:40:00,
2013-07-13 13:45:00,76.3,71.8,30.09,NE,49,3.0,7.0,86,0.00,,---,0.00,VWS V14.01,2013-07-13 17:45:00,
2013-07-13 13:50:00,76.3,71.8,30.09,NE,50,0.0,4.0,86,0.00,,---,0.00,VWS V14.01,2013-07-13 17:50:00,
2013-07-13 13:55:00,76.6,71.8,30.09,NE,46,3.0,6.0,85,0.00,,---,0.00,VWS V14.01,2013-07-13 17:55:00,
2013-07-13 14:00:00,76.4,71.2,30.09,ENE,63,3.0,8.0,84,0.00,,---,0.00,VWS V14.01,2013-07-13 18:00:00,
2013-07-13 14:05:00,76.1,70.9,30.09,North,350,1.0,9.0,84,0.00,,---,0.00,VWS V14.01,2013-07-13 18:05:00,
2013-07-13 14:10:00,76.3,71.5,30.08,NE,42,4.0,7.0,85,0.00,,---,0.00,VWS V14.01,2013-07-13 18:10:00,
2013-07-13 14:15:00,76.7,72.2,30.08,ENE,59,6.0,6.0,86,0.00,,---,0.00,VWS V14.01,2013-07-13 18:15:00,
2013-07-13 14:20:00,76.9,71.3,30.08,East,84,4.0,8.0,83,0.00,,---,0.00,VWS V14.01,2013-07-13 18:20:00,
2013-07-13 14:25:00,77.1,70.8,30.08,NE,56,1.0,11.0,81,0.00,,---,0.00,VWS V14.01,2013-07-13 18:25:00,
2013-07-13 14:30:00,77.1,70.5,30.08,NNE,19,6.0,10.0,80,0.00,,---,0.00,VWS V14.01,2013-07-13 18:30:00,
2013-07-13 14:35:00,77.2,70.9,30.08,NE,51,12.0,12.0,81,0.00,,---,0.00,VWS V14.01,2013-07-13 18:35:00,
2013-07-13 14:40:00,77.1,70.8,30.08,ENE,77,4.0,12.0,81,0.00,,---,0.00,VWS V14.01,2013-07-13 18:40:00,
2013-07-13 14:45:00,77.2,71.6,30.08,ENE,57,2.0,6.0,83,0.00,,---,0.00,VWS V14.01,2013-07-13 18:45:00,
2013-07-13 14:50:00,77.1,71.2,30.08,ENE,69,2.0,11.0,82,0.00,,---,0.00,VWS V14.01,2013-07-13 18:50:00,
2013-07-13 14:55:00,77.2,71.3,30.08,SE,130,1.0,8.0,82,0.00,,---,0.00,VWS V14.01,2013-07-13 18:55:00,
2013-07-13 15:00:00,77.4,71.8,30.08,NE,56,2.0,4.0,83,0.00,,---,0.00,VWS V14.01,2013-07-13 19:00:00,
2013-07-13 15:05:00,77.5,71.9,30.08,NE,44,3.0,5.0,83,0.00,,---,0.00,VWS V14.01,2013-07-13 19:05:00,
2013-07-13 15:10:00,77.6,71.7,30.08,NE,49,1.0,10.0,82,0.00,,---,0.00,VWS V14.01,2013-07-13 19:10:00,
2013-07-13 15:15:00,77.7,71.4,30.08,NE,39,6.0,7.0,81,0.00,,---,0.00,VWS V14.01,2013-07-13 19:15:00,
2013-07-13 15:20:00,77.5,71.2,30.08,East,87,3.0,8.0,81,0.00,,---,0.00,VWS V14.01,2013-07-13 19:20:00,
2013-07-13 15:25:00,77.6,72.0,30.08,ENE,61,0.0,6.0,83,0.00,,---,0.00,VWS V14.01,2013-07-13 19:25:00,
2013-07-13 15:30:00,77.5,71.2,30.08,NNW,347,3.0,9.0,81,0.00,,---,0.00,VWS V14.01,2013-07-13 19:30:00,
2013-07-13 15:35:00,77.2,71.3,30.08,ESE,113,2.0,9.0,82,0.00,,---,0.00,VWS V14.01,2013-07-13 19:35:00,
2013-07-13 15:40:00,77.0,71.4,30.08,NE,38,4.0,6.0,83,0.00,,---,0.00,VWS V14.01,2013-07-13 19:40:00,
2013-07-13 15:45:00,76.9,71.0,30.08,ENE,63,2.0,9.0,82,0.00,,---,0.00,VWS V14.01,2013-07-13 19:45:00,
2013-07-13 15:50:00,77.0,71.4,30.08,NNE,33,3.0,8.0,83,0.00,,---,0.00,VWS V14.01,2013-07-13 19:50:00,
2013-07-13 15:55:00,77.3,71.7,30.07,NE,41,1.0,8.0,83,0.00,,---,0.00,VWS V14.01,2013-07-13 19:55:00,
2013-07-13 16:00:00,77.8,72.2,30.07,NE,34,0.0,3.0,83,0.00,,---,0.00,VWS V14.01,2013-07-13 20:00:00,
2013-07-13 16:05:00,78.2,73.3,30.07,East,96,0.0,5.0,85,0.00,,---,0.00,VWS V14.01,2013-07-13 20:05:00,
2013-07-13 16:10:00,78.6,73.0,30.07,ENE,63,0.0,3.0,83,0.00,,---,0.00,VWS V14.01,2013-07-13 20:10:00,
2013-07-13 16:15:00,78.5,71.8,30.07,NNE,32,1.0,4.0,80,0.00,,---,0.00,VWS V14.01,2013-07-13 20:15:00,
2013-07-13 16:20:00,78.1,71.4,30.07,NE,37,2.0,5.0,80,0.00,,---,0.00,VWS V14.01,2013-07-13 20:20:00,
2013-07-13 16:25:00,77.7,71.4,30.07,ENE,62,1.0,9.0,81,0.00,,---,0.00,VWS V14.01,2013-07-13 20:25:00,
2013-07-13 16:30:00,77.5,71.6,30.07,North,9,0.0,4.0,82,0.00,,---,0.00,VWS V14.01,2013-07-13 20:30:00,
2013-07-13 16:35:00,77.5,71.9,30.07,ENE,63,0.0,4.0,83,0.00,,---,0.00,VWS V14.01,2013-07-13 20:35:00,
2013-07-13 16:40:00,77.7,72.1,30.07,NE,37,1.0,5.0,83,0.00,,---,0.00,VWS V14.01,2013-07-13 20:40:00,
2013-07-13 16:45:00,77.9,72.3,30.07,North,354,1.0,4.0,83,0.00,,---,0.00,VWS V14.01,2013-07-13 20:45:00,
2013-07-13 16:50:00,78.2,72.6,30.07,NNW,338,1.0,3.0,83,0.00,,---,0.00,VWS V14.01,2013-07-13 20:50:00,
2013-07-13 16:55:00,78.6,73.0,30.07,NNW,347,2.0,4.0,83,0.00,,---,0.00,VWS V14.01,2013-07-13 20:55:00,
2013-07-13 17:00:00,78.8,73.2,30.07,NW,316,2.0,3.0,83,0.00,,---,0.00,VWS V14.01,2013-07-13 21:00:00,
2013-07-13 17:05:00,78.8,72.5,30.06,North,356,1.0,6.0,81,0.00,,---,0.00,VWS V14.01,2013-07-13 21:05:00,
2013-07-13 17:10:00,78.7,72.8,30.06,ENE,67,1.0,7.0,82,0.00,,---,0.00,VWS V14.01,2013-07-13 21:10:00,
2013-07-13 17:15:00,78.8,72.1,30.06,East,81,2.0,6.0,80,0.00,,---,0.00,VWS V14.01,2013-07-13 21:15:00,
2013-07-13 17:20:00,79.1,73.1,30.06,NNW,348,2.0,6.0,82,0.00,,---,0.00,VWS V14.01,2013-07-13 21:20:00,
2013-07-13 17:25:00,79.4,72.7,30.06,ENE,72,1.0,7.0,80,0.00,,---,0.00,VWS V14.01,2013-07-13 21:25:00,
2013-07-13 17:30:00,79.5,72.8,30.06,North,1,2.0,6.0,80,0.00,,---,0.00,VWS V14.01,2013-07-13 21:30:00,
2013-07-13 17:35:00,79.9,73.2,30.05,North,350,4.0,5.0,80,0.00,,---,0.00,VWS V14.01,2013-07-13 21:35:00,
2013-07-13 17:41:00,80.2,73.1,30.06,East,86,0.0,6.0,79,0.00,,---,0.00,VWS V14.01,2013-07-13 21:41:00,
2013-07-13 17:46:00,80.3,73.2,30.05,NNW,332,4.0,7.0,79,0.00,,---,0.00,VWS V14.01,2013-07-13 21:46:00,
2013-07-13 17:51:00,80.6,73.9,30.05,NE,56,5.0,6.0,80,0.00,,---,0.00,VWS V14.01,2013-07-13 21:51:00,
2013-07-13 17:56:00,80.7,73.6,30.05,ENE,57,6.0,6.0,79,0.00,,---,0.00,VWS V14.01,2013-07-13 21:56:00,
2013-07-13 18:01:00,80.6,73.1,30.05,NE,44,4.0,8.0,78,0.00,,---,0.00,VWS V14.01,2013-07-13 22:01:00,
2013-07-13 18:06:00,80.3,73.2,30.05,North,11,2.0,9.0,79,0.00,,---,0.00,VWS V14.01,2013-07-13 22:06:00,
2013-07-13 18:11:00,80.1,73.0,30.05,ENE,67,1.0,5.0,79,0.00,,---,0.00,VWS V14.01,2013-07-13 22:11:00,
2013-07-13 18:16:00,79.8,73.4,30.05,ENE,72,1.0,4.0,81,0.00,,---,0.00,VWS V14.01,2013-07-13 22:16:00,
2013-07-13 18:21:00,79.5,73.2,30.05,NNE,23,2.0,5.0,81,0.00,,---,0.00,VWS V14.01,2013-07-13 22:21:00,
2013-07-13 18:26:00,79.4,73.4,30.05,NNE,30,3.0,5.0,82,0.00,,---,0.00,VWS V14.01,2013-07-13 22:26:00,
2013-07-13 18:31:00,79.2,73.2,30.05,NNE,32,2.0,5.0,82,0.00,,---,0.00,VWS V14.01,2013-07-13 22:31:00,
2013-07-13 18:36:00,78.8,73.2,30.06,NE,51,4.0,12.0,83,0.00,,---,0.00,VWS V14.01,2013-07-13 22:36:00,
2013-07-13 18:41:00,77.8,71.1,30.06,East,86,1.0,11.0,80,0.00,,---,0.00,VWS V14.01,2013-07-13 22:41:00,
2013-07-13 18:46:00,77.0,71.4,30.06,ENE,77,2.0,5.0,83,0.00,,---,0.00,VWS V14.01,2013-07-13 22:46:00,
2013-07-13 18:51:00,76.6,71.4,30.05,ENE,61,0.0,4.0,84,0.00,,---,0.00,VWS V14.01,2013-07-13 22:51:00,
2013-07-13 18:56:00,76.3,71.5,30.05,ENE,57,3.0,5.0,85,0.00,,---,0.00,VWS V14.01,2013-07-13 22:56:00,
2013-07-13 19:01:00,76.1,71.6,30.05,NE,53,4.0,5.0,86,0.00,,---,0.00,VWS V14.01,2013-07-13 23:01:00,
2013-07-13 19:06:00,76.0,71.9,30.05,NE,36,0.0,5.0,87,0.00,,---,0.00,VWS V14.01,2013-07-13 23:06:00,
2013-07-13 19:11:00,75.8,72.0,30.05,ENE,63,2.0,3.0,88,0.00,,---,0.00,VWS V14.01,2013-07-13 23:11:00,
2013-07-13 19:16:00,75.5,71.7,30.05,NE,49,1.0,8.0,88,0.00,,---,0.00,VWS V14.01,2013-07-13 23:16:00,
2013-07-13 19:21:00,75.3,71.5,30.06,NE,34,3.0,3.0,88,0.00,,---,0.00,VWS V14.01,2013-07-13 23:21:00,
2013-07-13 19:26:00,75.2,71.7,30.06,NNE,19,0.0,4.0,89,0.00,,---,0.00,VWS V14.01,2013-07-13 23:26:00,
2013-07-13 19:31:00,75.1,72.0,30.07,NNE,14,0.0,2.0,90,0.00,,---,0.00,VWS V14.01,2013-07-13 23:31:00,
2013-07-13 19:36:00,75.1,72.3,30.07,North,1,0.0,3.0,91,0.00,,---,0.00,VWS V14.01,2013-07-13 23:36:00,
2013-07-13 19:41:00,75.0,72.2,30.07,NE,40,0.0,1.0,91,0.00,,---,0.00,VWS V14.01,2013-07-13 23:41:00,
2013-07-13 19:46:00,75.0,72.2,30.07,NE,40,2.0,3.0,91,0.00,,---,0.00,VWS V14.01,2013-07-13 23:46:00,
2013-07-13 19:51:00,75.0,72.5,30.08,NE,44,1.0,3.0,92,0.00,,---,0.00,VWS V14.01,2013-07-13 23:51:00,
2013-07-13 19:56:00,75.1,72.6,30.07,NE,44,0.0,2.0,92,0.00,,---,0.00,VWS V14.01,2013-07-13 23:56:00,
2013-07-13 20:01:00,75.1,72.6,30.07,North,356,0.0,2.0,92,0.00,,---,0.00,VWS V14.01,2013-07-14 00:01:00,
2013-07-13 20:06:00,75.1,72.6,30.08,NW,321,0.0,1.0,92,0.00,,---,0.00,VWS V14.01,2013-07-14 00:06:00,
2013-07-13 20:11:00,75.0,72.8,30.08,NE,49,0.0,0.0,93,0.00,,---,0.00,VWS V14.01,2013-07-14 00:11:00,
2013-07-13 20:16:00,74.9,72.7,30.08,North,352,0.0,0.0,93,0.00,,---,0.00,VWS V14.01,2013-07-14 00:16:00,
2013-07-13 20:21:00,74.7,72.9,30.07,NNW,348,0.0,1.0,94,0.00,,---,0.00,VWS V14.01,2013-07-14 00:21:00,
2013-07-13 20:26:00,74.6,72.8,30.08,NNW,330,0.0,1.0,94,0.00,,---,0.00,VWS V14.01,2013-07-14 00:26:00,
2013-07-13 20:31:00,74.4,72.6,30.08,NNW,341,0.0,3.0,94,0.00,,---,0.00,VWS V14.01,2013-07-14 00:31:00,
2013-07-13 20:36:00,74.3,72.8,30.08,NNW,340,0.0,2.0,95,0.00,,---,0.00,VWS V14.01,2013-07-14 00:36:00,
2013-07-13 20:41:00,74.2,72.7,30.08,NNW,337,0.0,1.0,95,0.00,,---,0.00,VWS V14.01,2013-07-14 00:41:00,
2013-07-13 20:46:00,74.2,72.7,30.08,NNE,20,0.0,1.0,95,0.01,,---,0.01,VWS V14.01,2013-07-14 00:46:00,
2013-07-13 20:51:00,74.2,73.0,30.08,NE,40,1.0,3.0,96,0.01,,---,0.01,VWS V14.01,2013-07-14 00:51:00,
2013-07-13 20:56:00,74.2,73.0,30.08,NE,36,1.0,3.0,96,0.01,,---,0.01,VWS V14.01,2013-07-14 00:56:00,
2013-07-13 21:01:00,74.3,73.1,30.08,NE,36,0.0,3.0,96,0.02,,---,0.02,VWS V14.01,2013-07-14 01:01:00,
2013-07-13 21:06:00,74.4,73.2,30.08,North,11,2.0,4.0,96,0.02,,---,0.02,VWS V14.01,2013-07-14 01:06:00,
2013-07-13 21:11:00,74.3,73.1,30.08,NE,36,1.0,3.0,96,0.02,,---,0.02,VWS V14.01,2013-07-14 01:11:00,
2013-07-13 21:16:00,74.3,73.1,30.08,ENE,57,1.0,4.0,96,0.02,,---,0.02,VWS V14.01,2013-07-14 01:16:00,
2013-07-13 21:21:00,74.3,73.1,30.08,NE,36,3.0,6.0,96,0.02,,---,0.02,VWS V14.01,2013-07-14 01:21:00,
2013-07-13 21:26:00,74.2,73.0,30.08,ENE,57,1.0,8.0,96,0.07,,---,0.07,VWS V14.01,2013-07-14 01:26:00,
2013-07-13 21:31:00,74.1,72.9,30.08,NE,45,5.0,6.0,96,0.07,,---,0.07,VWS V14.01,2013-07-14 01:31:00,
2013-07-13 21:36:00,74.1,72.9,30.08,NE,49,2.0,7.0,96,0.08,,---,0.08,VWS V14.01,2013-07-14 01:36:00,
2013-07-13 21:41:00,74.1,72.9,30.08,East,88,2.0,6.0,96,0.09,,---,0.09,VWS V14.01,2013-07-14 01:41:00,
2013-07-13 21:46:00,74.0,73.1,30.08,NE,49,2.0,7.0,97,0.10,,---,0.10,VWS V14.01,2013-07-14 01:46:00,
2013-07-13 21:51:00,74.0,73.1,30.09,ENE,67,1.0,5.0,97,0.09,,---,0.10,VWS V14.01,2013-07-14 01:51:00,
2013-07-13 21:56:00,74.0,73.1,30.08,NE,45,0.0,3.0,97,0.09,,---,0.10,VWS V14.01,2013-07-14 01:56:00,
2013-07-13 22:01:00,73.9,73.0,30.09,ENE,60,1.0,4.0,97,0.09,,---,0.10,VWS V14.01,2013-07-14 02:01:00,
2013-07-13 22:06:00,73.9,73.0,30.09,East,84,0.0,3.0,97,0.08,,---,0.10,VWS V14.01,2013-07-14 02:06:00,
2013-07-13 22:11:00,73.8,72.9,30.09,North,4,0.0,1.0,97,0.08,,---,0.10,VWS V14.01,2013-07-14 02:11:00,
2013-07-13 22:16:00,73.8,72.9,30.09,ENE,71,1.0,2.0,97,0.08,,---,0.10,VWS V14.01,2013-07-14 02:16:00,
2013-07-13 22:21:00,73.7,72.8,30.08,ENE,64,0.0,2.0,97,0.08,,---,0.10,VWS V14.01,2013-07-14 02:21:00,
2013-07-13 22:26:00,73.7,72.8,30.08,ENE,63,0.0,1.0,97,0.08,,---,0.10,VWS V14.01,2013-07-14 02:26:00,
2013-07-13 22:31:00,73.7,72.8,30.08,ENE,68,0.0,2.0,97,0.03,,---,0.10,VWS V14.01,2013-07-14 02:31:00,
2013-07-13 22:36:00,73.6,72.7,30.08,NE,43,1.0,1.0,97,0.03,,---,0.10,VWS V14.01,2013-07-14 02:36:00,
2013-07-13 22:41:00,73.6,72.7,30.08,NE,44,0.0,2.0,97,0.02,,---,0.10,VWS V14.01,2013-07-14 02:41:00,
2013-07-13 22:46:00,73.6,72.7,30.08,ENE,74,0.0,3.0,97,0.01,,---,0.10,VWS V14.01,2013-07-14 02:46:00,
2013-07-13 22:51:00,73.5,72.6,30.08,ENE,57,1.0,2.0,97,0.00,,---,0.10,VWS V14.01,2013-07-14 02:51:00,
2013-07-13 22:56:00,73.5,72.6,30.08,NE,42,3.0,4.0,97,0.00,,---,0.10,VWS V14.01,2013-07-14 02:56:00,
2013-07-13 23:01:00,73.5,72.6,30.08,NE,52,0.0,4.0,97,0.00,,---,0.10,VWS V14.01,2013-07-14 03:01:00,
2013-07-13 23:06:00,73.5,72.6,30.09,NE,53,0.0,2.0,97,0.00,,---,0.10,VWS V14.01,2013-07-14 03:06:00,
2013-07-13 23:11:00,73.4,72.5,30.09,NNE,30,0.0,4.0,97,0.00,,---,0.10,VWS V14.01,2013-07-14 03:11:00,
2013-07-13 23:16:00,73.4,72.5,30.09,ENE,73,1.0,1.0,97,0.00,,---,0.10,VWS V14.01,2013-07-14 03:16:00,
2013-07-13 23:21:00,73.4,72.5,30.09,ENE,75,0.0,4.0,97,0.00,,---,0.10,VWS V14.01,2013-07-14 03:21:00,
2013-07-13 23:26:00,73.4,72.5,30.09,ENE,57,0.0,2.0,97,0.00,,---,0.10,VWS V14.01,2013-07-14 03:26:00,
2013-07-13 23:31:00,73.4,72.5,30.09,ENE,57,0.0,1.0,97,0.00,,---,0.10,VWS V14.01,2013-07-14 03:31:00,
2013-07-13 23:36:00,73.4,72.5,30.09,ENE,57,0.0,1.0,97,0.00,,---,0.10,VWS V14.01,2013-07-14 03:36:00,
2013-07-13 23:41:00,73.4,72.5,30.09,East,94,1.0,1.0,97,0.00,,---,0.10,VWS V14.01,2013-07-14 03:41:00,
2013-07-13 23:46:00,73.4,72.8,30.09,East,98,0.0,1.0,98,0.00,,---,0.10,VWS V14.01,2013-07-14 03:46:00,
2013-07-13 23:51:00,73.4,72.8,30.09,ESE,121,0.0,2.0,98,0.00,,---,0.10,VWS V14.01,2013-07-14 03:51:00,
2013-07-13 23:56:00,73.4,72.8,30.09,ESE,115,1.0,2.0,98,0.00,,---,0.10,VWS V14.01,2013-07-14 03:56:00,